User: anonymous   Login
Location: Juniper Campground
(35.7953°N, 106.2814°W)
Time: 07:16:09
(UTC-07:00)
Language:

Envisat - Orbit

View from above orbital plane
View from above orbital plane
View from above satellite
View from above satellite

Ground track
Ground track

The orbit data is extracted from the following two-line orbital elements,

1 27386U 02009A   18323.05721674 -.00000006  00000-0  11705-4 0  9991
2 27386  98.1698 349.6991 0001299  97.0887 294.6857 14.37934559875786
Epoch (UTC): 19 November 2018 01:22:23
Eccentricity: 0.0001299
inclination: 98.1698°
perigee height: 764 km
apogee height: 766 km
right ascension of ascending node: 349.6991°
argument of perigee: 97.0887°
revolutions per day: 14.37934559
mean anomaly at epoch: 294.6857°
orbit number at epoch: 87578

The dashed part of the orbit path shows where the satellite is in the earth's shadow,  

DLR